Friday, November 17, 2017, 4:12 PM EST
Back to Local

KESN, Easton / Newman Field

Location: Easton, MD, United States Lat: 38.8
Local Time: 4:12 PM EST (21:12 GMT) Lon: -76.067
Time Zone: US/Eastern Elev: 72 ft

Show me the last for .
Show Coded

Time T Td Feel RH Dir Speed Gust Alt SLP Vis Weather Sky Remarks
2017-11-17 15:50 48 28 46 45 340° 5 - 30.18 - 10 SCT120 None
2017-11-17 14:50 52 27 - 37 310° 9 - 30.18 - 10 FEW120 None
2017-11-17 13:59 52 28 - 40 300° 5 - 30.18 - 10 FEW100 None
2017-11-17 12:50 50 28 44 43 330° 13 18 30.19 - 10 SCT250 None
2017-11-17 11:50 50 28 43 43 320° 17 23 30.21 - 10 CLR None
2017-11-17 10:50 48 30 41 49 330° 12 21 30.23 - 10 CLR None
2017-11-17 09:50 48 28 41 45 340° 15 22 30.23 - 10 CLR None
2017-11-17 08:50 46 28 39 49 340° 17 22 30.22 - 10 CLR None
2017-11-17 07:50 45 30 37 56 330° 13 18 30.21 - 10 CLR None
2017-11-17 06:50 45 30 37 56 330° 9 17 30.20 - 10 FEW050 None
2017-11-17 05:53 45 30 40 56 310° 9 - 30.18 - 10 FEW150 None
2017-11-17 04:35 45 31 41 57 310° 7 - 30.16 - 10 SCT048 None
2017-11-17 04:16 45 31 38 57 310° 9 16 30.15 - 10 CLR None
2017-11-17 03:56 45 31 37 57 320° 12 17 30.14 - 10 CLR None
2017-11-17 03:36 45 31 38 56 310° 12 17 30.13 - 10 CLR None
2017-11-17 03:16 45 31 38 57 300° 9 16 30.13 - 10 SCT048 None
2017-11-17 02:56 46 31 41 56 300° 8 - 30.14 - 10 SCT048 None
2017-11-17 02:36 46 30 41 54 310° 10 - 30.13 - 10 CLR None
2017-11-17 02:16 46 31 38 56 310° 12 17 30.13 - 10 CLR None
2017-11-17 01:56 45 31 38 56 310° 13 17 30.12 - 10 CLR None
2017-11-17 01:36 45 31 38 56 320° 13 20 30.12 - 10 CLR None
2017-11-17 01:16 45 31 38 56 320° 12 18 30.11 - 10 CLR None
2017-11-17 00:56 45 31 40 58 310° 10 - 30.11 - 10 CLR 6-hr Min Temp (1am): 45.0°F
6-hr Max Temp (1am): 52.2°F
24-hr Min Temp (1am): 44.4°F
24-hr Max Temp (1am): 62.4°F
2017-11-17 00:36 46 31 38 56 320° 12 20 30.11 - 10 CLR None
2017-11-17 00:16 45 31 41 57 320° 9 - 30.11 - 10 CLR None
2017-11-16 23:56 46 31 39 56 320° 14 18 30.11 - 10 CLR None
2017-11-16 23:36 46 30 38 53 320° 12 21 30.10 - 10 CLR None
2017-11-16 23:16 46 30 38 52 330° 17 23 30.10 - 10 CLR None
2017-11-16 22:56 46 30 38 52 320° 15 24 30.10 - 10 CLR None
2017-11-16 22:36 47 29 38 50 340° 15 25 30.10 - 10 CLR None
2017-11-16 22:16 46 29 38 51 340° 17 23 30.10 - 10 CLR None
2017-11-16 21:56 46 30 39 52 340° 14 21 30.10 - 10 CLR None
2017-11-16 20:50 46 30 38 52 330° 13 24 30.09 - 10 CLR None
2017-11-16 19:50 52 32 - 46 340° 14 21 30.07 - 10 SCT060 None
2017-11-16 18:52 52 32 - 46 340° 14 24 30.03 - 10 SCT060 None
2017-11-16 17:50 54 30 - 40 330° 15 26 30.00 - 10 SCT060 None
2017-11-16 16:50 55 36 - 47 340° 10 20 29.96 - 10 FEW080 None

Support USWX by starting your Amazon purchase here.